TimeEST,TemperatureF,Dew PointF,Humidity,Sea Level PressureIn,VisibilityMPH,Wind Direction,Wind SpeedMPH,Gust SpeedMPH,PrecipitationIn,Events,Conditions,WindDirDegrees,DateUTC
12:56 AM,32.0,23.0,69,29.63,10.0,WNW,11.5,-,N/A,,Scattered Clouds,290,2013-03-04 05:56:00
1:56 AM,32.0,23.0,69,29.64,10.0,WNW,10.4,20.7,N/A,,Clear,290,2013-03-04 06:56:00
2:56 AM,30.9,21.9,69,29.64,10.0,WNW,10.4,19.6,N/A,,Mostly Cloudy,290,2013-03-04 07:56:00
3:56 AM,30.2,21.2,69,29.60,10.0,WNW,10.4,-,N/A,,Mostly Cloudy,290,2013-03-04 08:56:00
4:56 AM,30.0,21.0,69,29.65,10.0,West,9.2,-,N/A,,Overcast,280,2013-03-04 09:56:00
5:56 AM,28.9,19.9,69,29.66,10.0,West,9.2,-,N/A,,Clear,280,2013-03-04 10:56:00
6:56 AM,28.4,19.4,69,29.63,10.0,WNW,11.5,-,N/A,,Mostly Cloudy,290,2013-03-04 11:56:00
7:56 AM,30.0,19.0,64,29.68,10.0,West,13.8,25.3,N/A,,Partly Cloudy,270,2013-03-04 12:56:00
8:56 AM,33.1,19.9,59,29.66,10.0,WNW,17.3,24.2,N/A,,Partly Cloudy,290,2013-03-04 13:56:00
9:56 AM,35.1,19.0,52,29.65,10.0,West,20.7,26.5,N/A,,Scattered Clouds,280,2013-03-04 14:56:00
10:56 AM,37.0,19.0,48,29.64,10.0,WNW,19.6,28.8,N/A,,Partly Cloudy,290,2013-03-04 15:56:00
11:56 AM,37.9,19.9,48,29.64,10.0,WNW,18.4,25.3,N/A,,Mostly Cloudy,300,2013-03-04 16:56:00
12:56 PM,37.9,19.0,47,29.63,10.0,WNW,17.3,25.3,N/A,,Overcast,290,2013-03-04 17:56:00
1:56 PM,39.0,21.0,49,29.62,10.0,WNW,13.8,27.6,N/A,,Overcast,300,2013-03-04 18:56:00
2:56 PM,37.9,21.9,53,29.63,10.0,NW,18.4,27.6,N/A,,Overcast,320,2013-03-04 19:56:00
3:56 PM,36.0,23.0,59,29.64,10.0,WNW,15.0,-,N/A,,Overcast,300,2013-03-04 20:56:00
4:56 PM,36.0,23.0,59,29.66,10.0,NW,13.8,26.5,N/A,,Overcast,320,2013-03-04 21:56:00
5:54 PM,33.8,24.8,70,29.64,10.0,WNW,16.1,25.3,0.00,Snow,Light Snow,300,2013-03-04 22:54:00
5:56 PM,34.0,24.1,67,29.69,9.0,NW,15.0,25.3,0.00,Snow,Light Snow,310,2013-03-04 22:56:00
6:08 PM,33.8,24.8,70,29.65,9.0,NW,13.8,-,0.00,,Overcast,310,2013-03-04 23:08:00
6:25 PM,33.8,26.6,75,29.66,5.0,NW,12.7,21.9,0.00,Snow,Light Snow,310,2013-03-04 23:25:00
6:32 PM,33.8,26.6,75,29.66,7.0,WNW,12.7,-,0.00,Snow,Light Snow,300,2013-03-04 23:32:00
6:56 PM,32.0,26.1,79,29.72,4.0,NW,11.5,-,0.00,Snow,Light Snow,310,2013-03-04 23:56:00
7:03 PM,32.0,26.6,80,29.67,3.0,WNW,11.5,-,0.00,Snow,Light Snow,300,2013-03-05 00:03:00
7:13 PM,32.0,26.6,80,29.67,4.0,WNW,10.4,17.3,0.00,Snow,Light Snow,300,2013-03-05 00:13:00
7:56 PM,33.1,24.1,70,29.72,10.0,WNW,13.8,26.5,0.00,,Overcast,300,2013-03-05 00:56:00
8:56 PM,33.1,23.0,66,29.74,10.0,NW,12.7,-,N/A,,Overcast,320,2013-03-05 01:56:00
9:56 PM,32.0,21.9,66,29.76,10.0,NW,12.7,20.7,N/A,,Overcast,320,2013-03-05 02:56:00
10:56 PM,32.0,21.0,64,29.77,10.0,NW,13.8,21.9,N/A,,Overcast,310,2013-03-05 03:56:00
11:56 PM,30.9,21.0,67,29.78,10.0,NW,17.3,23.0,N/A,,Mostly Cloudy,320,2013-03-05 04:56:00